Time,TemperatureF,DewpointF,PressureIn,WindDirection,WindDirectionDegrees,WindSpeedMPH,WindSpeedGustMPH,Humidity,HourlyPrecipIn,Conditions,Clouds,dailyrainin,SoftwareType,DateUTC
2013-02-14 00:00:00,42.4,26.0,28.59,ESE,112,0.0,1.4,50,0.00,,,0.00,Rainwise IP-100,2013-02-14 06:00:00,
2013-02-14 00:05:00,41.9,26.0,28.59,ESE,112,0.0,0.0,51,0.00,,,0.00,Rainwise IP-100,2013-02-14 06:05:00,
2013-02-14 00:10:00,41.3,26.0,28.60,ESE,112,0.0,0.0,52,0.00,,,0.00,Rainwise IP-100,2013-02-14 06:10:00,
2013-02-14 00:15:00,40.8,26.0,28.60,ESE,112,0.0,0.0,54,0.00,,,0.00,Rainwise IP-100,2013-02-14 06:15:00,
2013-02-14 00:20:00,40.6,26.0,28.60,ESE,112,0.0,0.0,55,0.00,,,0.00,Rainwise IP-100,2013-02-14 06:20:00,
2013-02-14 00:25:00,40.2,26.0,28.59,ESE,112,0.0,0.0,56,0.00,,,0.00,Rainwise IP-100,2013-02-14 06:25:00,
2013-02-14 00:30:00,39.4,26.0,28.60,ESE,112,0.0,0.0,57,0.00,,,0.00,Rainwise IP-100,2013-02-14 06:30:00,
2013-02-14 00:35:00,39.3,26.0,28.60,ESE,112,0.0,1.2,57,0.00,,,0.00,Rainwise IP-100,2013-02-14 06:35:00,
2013-02-14 00:40:00,39.8,26.0,28.60,ESE,112,0.0,1.4,55,0.00,,,0.00,Rainwise IP-100,2013-02-14 06:40:00,
2013-02-14 00:45:00,40.3,26.0,28.59,ESE,112,0.0,1.4,54,0.00,,,0.00,Rainwise IP-100,2013-02-14 06:45:00,
2013-02-14 00:50:00,40.8,26.0,28.59,ESE,112,0.0,1.9,53,0.00,,,0.00,Rainwise IP-100,2013-02-14 06:50:00,
2013-02-14 00:55:00,41.0,26.0,28.60,ESE,112,1.2,1.4,53,0.00,,,0.00,Rainwise IP-100,2013-02-14 06:55:00,
2013-02-14 01:00:00,41.0,26.0,28.59,ESE,112,0.0,1.6,53,0.00,,,0.00,Rainwise IP-100,2013-02-14 07:00:00,
2013-02-14 01:05:00,41.0,26.0,28.60,ESE,112,0.0,1.6,53,0.00,,,0.00,Rainwise IP-100,2013-02-14 07:05:00,
2013-02-14 01:06:00,41.0,26.0,28.59,ESE,112,0.0,1.4,53,0.00,,,0.00,Rainwise IP-100,2013-02-14 07:06:00,
2013-02-14 01:10:00,40.9,26.0,28.60,ESE,112,0.0,1.2,53,0.00,,,0.00,Rainwise IP-100,2013-02-14 07:10:00,
2013-02-14 01:11:00,40.9,26.0,28.60,ESE,112,0.0,1.2,53,0.00,,,0.00,Rainwise IP-100,2013-02-14 07:11:00,
2013-02-14 01:16:00,40.7,26.0,28.60,ESE,112,0.0,1.4,53,0.00,,,0.00,Rainwise IP-100,2013-02-14 07:16:00,
2013-02-14 01:21:00,40.5,26.0,28.59,ESE,112,0.0,1.4,53,0.00,,,0.00,Rainwise IP-100,2013-02-14 07:21:00,
2013-02-14 01:26:00,40.3,26.0,28.60,ESE,112,0.0,1.6,54,0.00,,,0.00,Rainwise IP-100,2013-02-14 07:26:00,
2013-02-14 01:31:00,40.2,26.0,28.60,ESE,112,0.0,1.2,54,0.00,,,0.00,Rainwise IP-100,2013-02-14 07:31:00,
2013-02-14 01:36:00,40.1,26.0,28.60,ESE,112,0.0,1.9,55,0.00,,,0.00,Rainwise IP-100,2013-02-14 07:36:00,
2013-02-14 01:41:00,39.7,26.0,28.60,ESE,112,0.0,1.2,55,0.00,,,0.00,Rainwise IP-100,2013-02-14 07:41:00,
2013-02-14 01:46:00,39.3,24.0,28.60,ESE,112,0.0,1.4,56,0.00,,,0.00,Rainwise IP-100,2013-02-14 07:46:00,
2013-02-14 01:51:00,39.2,26.0,28.60,ESE,112,0.0,1.6,57,0.00,,,0.00,Rainwise IP-100,2013-02-14 07:51:00,
2013-02-14 01:56:00,39.1,26.0,28.60,ESE,112,1.2,2.1,57,0.00,,,0.00,Rainwise IP-100,2013-02-14 07:56:00,
2013-02-14 02:01:00,39.1,26.0,28.60,ESE,112,0.0,1.9,58,0.00,,,0.00,Rainwise IP-100,2013-02-14 08:01:00,
2013-02-14 02:06:00,39.1,26.0,28.60,ESE,112,0.0,1.6,58,0.00,,,0.00,Rainwise IP-100,2013-02-14 08:06:00,
2013-02-14 02:11:00,39.1,26.0,28.60,ESE,112,1.2,1.6,59,0.00,,,0.00,Rainwise IP-100,2013-02-14 08:11:00,
2013-02-14 02:16:00,39.1,26.0,28.60,ESE,112,0.0,1.9,59,0.00,,,0.00,Rainwise IP-100,2013-02-14 08:16:00,
2013-02-14 02:21:00,39.1,26.0,28.60,ESE,112,0.0,1.4,59,0.00,,,0.00,Rainwise IP-100,2013-02-14 08:21:00,
2013-02-14 02:26:00,39.1,26.0,28.60,ESE,112,0.0,1.4,59,0.00,,,0.00,Rainwise IP-100,2013-02-14 08:26:00,
2013-02-14 02:31:00,39.1,26.0,28.60,ESE,112,0.0,1.4,59,0.00,,,0.00,Rainwise IP-100,2013-02-14 08:31:00,
2013-02-14 02:36:00,39.2,26.0,28.60,ESE,112,1.4,0.0,59,0.00,,,0.00,Rainwise IP-100,2013-02-14 08:36:00,
2013-02-14 02:41:00,39.2,26.0,28.60,ESE,112,0.0,1.6,59,0.00,,,0.00,Rainwise IP-100,2013-02-14 08:41:00,
2013-02-14 02:46:00,39.3,26.0,28.60,ESE,112,0.0,1.4,59,0.00,,,0.00,Rainwise IP-100,2013-02-14 08:46:00,
2013-02-14 02:51:00,39.2,26.0,28.60,ESE,112,0.0,1.6,60,0.00,,,0.00,Rainwise IP-100,2013-02-14 08:51:00,
2013-02-14 02:56:00,39.1,26.0,28.60,ESE,112,0.0,0.0,60,0.00,,,0.00,Rainwise IP-100,2013-02-14 08:56:00,
2013-02-14 03:01:00,39.1,26.0,28.60,ESE,112,0.0,1.4,60,0.00,,,0.00,Rainwise IP-100,2013-02-14 09:01:00,
2013-02-14 03:06:00,39.1,28.0,28.60,ESE,112,0.0,0.0,61,0.00,,,0.00,Rainwise IP-100,2013-02-14 09:06:00,
2013-02-14 03:11:00,38.7,28.0,28.60,ESE,112,0.0,2.3,62,0.00,,,0.00,Rainwise IP-100,2013-02-14 09:11:00,
2013-02-14 03:16:00,38.1,26.0,28.59,ESE,112,0.0,0.0,63,0.00,,,0.00,Rainwise IP-100,2013-02-14 09:16:00,
2013-02-14 03:21:00,37.6,28.0,28.59,ESE,112,0.0,0.0,64,0.00,,,0.00,Rainwise IP-100,2013-02-14 09:21:00,
2013-02-14 03:26:00,37.8,28.0,28.60,ESE,112,0.0,0.0,65,0.00,,,0.00,Rainwise IP-100,2013-02-14 09:26:00,
2013-02-14 03:31:00,38.2,28.0,28.60,ESE,112,0.0,0.0,66,0.00,,,0.00,Rainwise IP-100,2013-02-14 09:31:00,
2013-02-14 03:36:00,38.2,28.0,28.60,ESE,112,0.0,1.2,67,0.00,,,0.00,Rainwise IP-100,2013-02-14 09:36:00,
2013-02-14 03:41:00,38.2,28.0,28.60,ESE,112,0.0,0.0,67,0.00,,,0.00,Rainwise IP-100,2013-02-14 09:41:00,
2013-02-14 03:46:00,38.0,29.0,28.60,ESE,112,0.0,0.0,68,0.00,,,0.00,Rainwise IP-100,2013-02-14 09:46:00,
2013-02-14 03:51:00,37.8,29.0,28.60,ESE,112,0.0,0.0,68,0.00,,,0.00,Rainwise IP-100,2013-02-14 09:51:00,
2013-02-14 03:56:00,37.4,28.0,28.60,ESE,112,0.0,0.0,70,0.00,,,0.00,Rainwise IP-100,2013-02-14 09:56:00,
2013-02-14 04:01:00,37.1,28.0,28.60,ESE,112,0.0,0.0,70,0.00,,,0.00,Rainwise IP-100,2013-02-14 10:01:00,
2013-02-14 04:06:00,37.1,29.0,28.60,ESE,112,0.0,0.0,71,0.00,,,0.00,Rainwise IP-100,2013-02-14 10:06:00,
2013-02-14 04:11:00,36.9,29.0,28.60,ESE,112,0.0,0.0,72,0.00,,,0.00,Rainwise IP-100,2013-02-14 10:11:00,
2013-02-14 04:16:00,37.0,29.0,28.60,ESE,112,0.0,1.2,72,0.00,,,0.00,Rainwise IP-100,2013-02-14 10:16:00,
2013-02-14 04:21:00,37.3,29.0,28.60,ESE,112,0.0,0.0,72,0.00,,,0.00,Rainwise IP-100,2013-02-14 10:21:00,
2013-02-14 04:26:00,37.5,31.0,28.60,ESE,112,0.0,1.4,72,0.00,,,0.00,Rainwise IP-100,2013-02-14 10:26:00,
2013-02-14 04:31:00,37.7,31.0,28.60,ESE,112,0.0,1.6,72,0.00,,,0.00,Rainwise IP-100,2013-02-14 10:31:00,
2013-02-14 04:36:00,37.7,31.0,28.60,ESE,112,0.0,1.4,72,0.00,,,0.00,Rainwise IP-100,2013-02-14 10:36:00,
2013-02-14 04:41:00,37.4,29.0,28.60,ESE,112,0.0,1.2,72,0.00,,,0.00,Rainwise IP-100,2013-02-14 10:41:00,
2013-02-14 04:46:00,36.9,29.0,28.60,ESE,112,0.0,0.0,73,0.00,,,0.00,Rainwise IP-100,2013-02-14 10:46:00,
2013-02-14 04:51:00,36.6,29.0,28.60,ESE,112,0.0,1.4,74,0.00,,,0.00,Rainwise IP-100,2013-02-14 10:51:00,
2013-02-14 04:56:00,37.0,31.0,28.60,ESE,112,0.0,1.4,75,0.00,,,0.00,Rainwise IP-100,2013-02-14 10:56:00,
2013-02-14 05:01:00,37.4,29.0,28.60,ESE,112,1.2,1.6,74,0.00,,,0.00,Rainwise IP-100,2013-02-14 11:01:00,
2013-02-14 05:06:00,37.4,29.0,28.60,ESE,112,0.0,1.6,74,0.00,,,0.00,Rainwise IP-100,2013-02-14 11:06:00,
2013-02-14 05:11:00,37.3,29.0,28.60,ESE,112,0.0,1.4,74,0.00,,,0.00,Rainwise IP-100,2013-02-14 11:11:00,
2013-02-14 05:16:00,37.0,31.0,28.60,ESE,112,0.0,0.0,75,0.00,,,0.00,Rainwise IP-100,2013-02-14 11:16:00,
2013-02-14 05:21:00,36.9,31.0,28.60,ESE,112,0.0,1.2,76,0.00,,,0.00,Rainwise IP-100,2013-02-14 11:21:00,
2013-02-14 05:26:00,37.0,31.0,28.60,ESE,112,0.0,1.6,76,0.00,,,0.00,Rainwise IP-100,2013-02-14 11:26:00,
2013-02-14 05:31:00,37.1,31.0,28.60,ESE,112,1.4,1.9,76,0.00,,,0.00,Rainwise IP-100,2013-02-14 11:31:00,
2013-02-14 05:36:00,37.3,31.0,28.60,ESE,112,1.4,1.6,76,0.00,,,0.00,Rainwise IP-100,2013-02-14 11:36:00,
2013-02-14 05:41:00,37.3,31.0,28.60,ESE,112,0.0,1.6,76,0.00,,,0.00,Rainwise IP-100,2013-02-14 11:41:00,
2013-02-14 05:46:00,37.1,31.0,28.60,ESE,112,0.0,1.2,76,0.00,,,0.00,Rainwise IP-100,2013-02-14 11:46:00,
2013-02-14 05:51:00,36.7,31.0,28.60,ESE,112,0.0,1.4,77,0.00,,,0.00,Rainwise IP-100,2013-02-14 11:51:00,
2013-02-14 05:56:00,36.5,31.0,28.60,ESE,112,0.0,1.2,77,0.00,,,0.00,Rainwise IP-100,2013-02-14 11:56:00,
2013-02-14 06:01:00,36.4,29.0,28.61,ESE,112,0.0,1.6,78,0.00,,,0.00,Rainwise IP-100,2013-02-14 12:01:00,
2013-02-14 06:06:00,36.4,29.0,28.61,ESE,112,0.0,1.4,78,0.00,,,0.00,Rainwise IP-100,2013-02-14 12:06:00,
2013-02-14 06:11:00,36.5,31.0,28.60,ESE,112,0.0,1.2,79,0.00,,,0.00,Rainwise IP-100,2013-02-14 12:11:00,
2013-02-14 06:16:00,36.5,31.0,28.61,ESE,112,0.0,1.4,79,0.00,,,0.00,Rainwise IP-100,2013-02-14 12:16:00,
2013-02-14 06:21:00,36.5,32.0,28.61,ESE,112,0.0,1.2,80,0.00,,,0.00,Rainwise IP-100,2013-02-14 12:21:00,
2013-02-14 06:26:00,36.2,31.0,28.61,ESE,112,0.0,0.0,80,0.00,,,0.00,Rainwise IP-100,2013-02-14 12:26:00,
2013-02-14 06:31:00,35.6,31.0,28.61,ESE,112,0.0,0.0,80,0.00,,,0.00,Rainwise IP-100,2013-02-14 12:31:00,
2013-02-14 06:36:00,34.9,29.0,28.62,ESE,112,0.0,0.0,81,0.00,,,0.00,Rainwise IP-100,2013-02-14 12:36:00,
2013-02-14 06:41:00,34.6,29.0,28.62,ESE,112,0.0,0.0,82,0.00,,,0.00,Rainwise IP-100,2013-02-14 12:41:00,
2013-02-14 06:46:00,34.5,31.0,28.62,ESE,112,0.0,0.0,83,0.00,,,0.00,Rainwise IP-100,2013-02-14 12:46:00,
2013-02-14 06:51:00,34.4,31.0,28.62,ESE,112,0.0,0.0,84,0.00,,,0.00,Rainwise IP-100,2013-02-14 12:51:00,
2013-02-14 06:56:00,34.1,31.0,28.62,ESE,112,0.0,0.0,85,0.00,,,0.00,Rainwise IP-100,2013-02-14 12:56:00,
2013-02-14 07:01:00,33.8,31.0,28.63,ESE,112,0.0,0.0,85,0.00,,,0.00,Rainwise IP-100,2013-02-14 13:01:00,
2013-02-14 07:06:00,33.6,31.0,28.63,ESE,112,0.0,0.0,86,0.00,,,0.00,Rainwise IP-100,2013-02-14 13:06:00,
2013-02-14 07:11:00,33.1,29.0,28.63,ESE,112,0.0,0.0,86,0.00,,,0.00,Rainwise IP-100,2013-02-14 13:11:00,
2013-02-14 07:16:00,32.5,29.0,28.63,ESE,112,0.0,0.0,86,0.00,,,0.00,Rainwise IP-100,2013-02-14 13:16:00,
2013-02-14 07:21:00,32.0,29.0,28.62,ESE,112,0.0,0.0,87,0.00,,,0.00,Rainwise IP-100,2013-02-14 13:21:00,
2013-02-14 07:26:00,32.0,29.0,28.63,ESE,112,0.0,0.0,88,0.00,,,0.00,Rainwise IP-100,2013-02-14 13:26:00,
2013-02-14 07:31:00,32.0,29.0,28.63,ESE,112,0.0,0.0,89,0.00,,,0.00,Rainwise IP-100,2013-02-14 13:31:00,
2013-02-14 07:36:00,31.9,29.0,28.63,ESE,112,0.0,0.0,90,0.00,,,0.00,Rainwise IP-100,2013-02-14 13:36:00,
2013-02-14 07:41:00,32.0,29.0,28.63,ESE,112,0.0,0.0,91,0.00,,,0.00,Rainwise IP-100,2013-02-14 13:41:00,
2013-02-14 07:46:00,32.2,31.0,28.63,ESE,112,0.0,0.0,92,0.00,,,0.00,Rainwise IP-100,2013-02-14 13:46:00,
2013-02-14 07:51:00,33.0,31.0,28.64,ESE,112,0.0,0.0,92,0.00,,,0.00,Rainwise IP-100,2013-02-14 13:51:00,
2013-02-14 07:56:00,33.9,32.0,28.63,ESE,112,0.0,0.0,92,0.00,,,0.00,Rainwise IP-100,2013-02-14 13:56:00,
2013-02-14 08:01:00,34.8,32.0,28.64,ESE,112,0.0,0.0,91,0.00,,,0.00,Rainwise IP-100,2013-02-14 14:01:00,
2013-02-14 08:06:00,36.7,35.0,28.64,ESE,112,0.0,0.0,89,0.00,,,0.00,Rainwise IP-100,2013-02-14 14:06:00,
2013-02-14 08:11:00,38.5,36.0,28.64,ESE,112,0.0,1.2,86,0.00,,,0.00,Rainwise IP-100,2013-02-14 14:11:00,
2013-02-14 08:16:00,39.9,36.0,28.64,ESE,112,0.0,0.0,82,0.00,,,0.00,Rainwise IP-100,2013-02-14 14:16:00,
2013-02-14 08:21:00,41.0,35.0,28.64,ESE,112,0.0,1.9,77,0.00,,,0.00,Rainwise IP-100,2013-02-14 14:21:00,
2013-02-14 08:26:00,41.6,35.0,28.64,ESE,112,0.0,2.1,74,0.00,,,0.00,Rainwise IP-100,2013-02-14 14:26:00,
2013-02-14 08:31:00,42.2,33.0,28.64,SE,135,2.1,3.3,71,0.00,,,0.00,Rainwise IP-100,2013-02-14 14:31:00,
2013-02-14 08:36:00,42.8,33.0,28.64,SE,135,2.8,2.8,69,0.00,,,0.00,Rainwise IP-100,2013-02-14 14:36:00,
2013-02-14 08:41:00,43.1,33.0,28.65,SE,135,0.0,3.5,67,0.00,,,0.00,Rainwise IP-100,2013-02-14 14:41:00,
2013-02-14 08:46:00,43.8,33.0,28.64,SE,135,0.0,2.6,66,0.00,,,0.00,Rainwise IP-100,2013-02-14 14:46:00,
2013-02-14 08:51:00,44.6,35.0,28.64,SE,135,2.1,3.3,65,0.00,,,0.00,Rainwise IP-100,2013-02-14 14:51:00,
2013-02-14 08:56:00,45.1,33.0,28.65,SSW,202,0.0,4.0,64,0.00,,,0.00,Rainwise IP-100,2013-02-14 14:56:00,
2013-02-14 09:01:00,45.5,35.0,28.65,SE,135,3.0,4.9,63,0.00,,,0.00,Rainwise IP-100,2013-02-14 15:01:00,
2013-02-14 09:06:00,45.9,35.0,28.65,WSW,247,1.4,4.7,63,0.00,,,0.00,Rainwise IP-100,2013-02-14 15:06:00,
2013-02-14 09:11:00,46.4,33.0,28.65,SW,225,3.7,6.1,62,0.00,,,0.00,Rainwise IP-100,2013-02-14 15:11:00,
2013-02-14 09:16:00,46.6,35.0,28.65,WSW,247,1.6,6.3,61,0.00,,,0.00,Rainwise IP-100,2013-02-14 15:16:00,
2013-02-14 09:21:00,46.9,33.0,28.65,SW,225,4.2,5.1,60,0.00,,,0.00,Rainwise IP-100,2013-02-14 15:21:00,
2013-02-14 09:26:00,47.3,33.0,28.65,SW,225,2.8,7.2,59,0.00,,,0.00,Rainwise IP-100,2013-02-14 15:26:00,
2013-02-14 09:31:00,47.3,33.0,28.65,SSW,202,3.0,8.2,59,0.00,,,0.00,Rainwise IP-100,2013-02-14 15:31:00,
2013-02-14 09:36:00,47.5,33.0,28.65,SSW,202,3.0,7.2,59,0.00,,,0.00,Rainwise IP-100,2013-02-14 15:36:00,
2013-02-14 09:41:00,47.9,35.0,28.64,SW,225,2.6,7.2,58,0.00,,,0.00,Rainwise IP-100,2013-02-14 15:41:00,
2013-02-14 09:46:00,48.6,35.0,28.65,SSW,202,4.7,6.5,58,0.00,,,0.00,Rainwise IP-100,2013-02-14 15:46:00,
2013-02-14 09:51:00,49.1,35.0,28.65,SSW,202,3.7,7.9,58,0.00,,,0.00,Rainwise IP-100,2013-02-14 15:51:00,
2013-02-14 09:56:00,49.2,35.0,28.65,SSW,202,3.7,8.4,56,0.00,,,0.00,Rainwise IP-100,2013-02-14 15:56:00,
2013-02-14 10:01:00,49.7,35.0,28.65,SW,225,3.5,9.8,56,0.00,,,0.00,Rainwise IP-100,2013-02-14 16:01:00,
2013-02-14 10:06:00,50.4,35.0,28.65,SW,225,1.6,7.2,55,0.00,,,0.00,Rainwise IP-100,2013-02-14 16:06:00,
2013-02-14 10:11:00,51.0,36.0,28.65,WSW,247,3.5,7.9,55,0.00,,,0.00,Rainwise IP-100,2013-02-14 16:11:00,
2013-02-14 10:16:00,51.3,36.0,28.65,WSW,247,3.3,7.7,54,0.00,,,0.00,Rainwise IP-100,2013-02-14 16:16:00,
2013-02-14 10:21:00,52.0,36.0,28.65,SSW,202,6.1,6.5,53,0.00,,,0.00,Rainwise IP-100,2013-02-14 16:21:00,
2013-02-14 10:26:00,52.6,36.0,28.65,South,180,4.2,7.7,52,0.00,,,0.00,Rainwise IP-100,2013-02-14 16:26:00,
2013-02-14 10:31:00,53.3,36.0,28.64,SW,225,4.2,7.7,51,0.00,,,0.00,Rainwise IP-100,2013-02-14 16:31:00,
2013-02-14 10:36:00,54.2,36.0,28.64,South,180,5.4,8.4,50,0.00,,,0.00,Rainwise IP-100,2013-02-14 16:36:00,
2013-02-14 10:41:00,54.9,37.0,28.64,SSW,202,4.2,11.7,49,0.00,,,0.00,Rainwise IP-100,2013-02-14 16:41:00,
2013-02-14 10:46:00,55.4,36.0,28.64,WSW,247,7.9,9.8,47,0.00,,,0.00,Rainwise IP-100,2013-02-14 16:46:00,
2013-02-14 10:51:00,55.9,36.0,28.64,SSW,202,4.7,8.2,46,0.00,,,0.00,Rainwise IP-100,2013-02-14 16:51:00,
2013-02-14 10:56:00,56.7,36.0,28.64,SW,225,5.6,8.9,45,0.00,,,0.00,Rainwise IP-100,2013-02-14 16:56:00,
2013-02-14 11:01:00,57.5,36.0,28.64,SSE,157,8.2,12.4,43,0.00,,,0.00,Rainwise IP-100,2013-02-14 17:01:00,
2013-02-14 11:06:00,58.3,35.0,28.64,WSW,247,3.7,9.6,41,0.00,,,0.00,Rainwise IP-100,2013-02-14 17:06:00,
2013-02-14 11:11:00,59.3,35.0,28.64,SSW,202,4.0,10.0,39,0.00,,,0.00,Rainwise IP-100,2013-02-14 17:11:00,
2013-02-14 11:16:00,59.7,33.0,28.64,SW,225,5.8,13.3,37,0.00,,,0.00,Rainwise IP-100,2013-02-14 17:16:00,
2013-02-14 11:21:00,59.8,33.0,28.64,South,180,9.3,10.3,36,0.00,,,0.00,Rainwise IP-100,2013-02-14 17:21:00,
2013-02-14 11:26:00,59.8,33.0,28.64,West,270,4.0,11.0,36,0.00,,,0.00,Rainwise IP-100,2013-02-14 17:26:00,
2013-02-14 11:31:00,60.3,33.0,28.63,SSW,202,5.8,9.1,36,0.00,,,0.00,Rainwise IP-100,2013-02-14 17:31:00,
2013-02-14 11:36:00,60.9,33.0,28.63,WSW,247,5.6,11.2,35,0.00,,,0.00,Rainwise IP-100,2013-02-14 17:36:00,
2013-02-14 11:41:00,61.1,33.0,28.63,SSW,202,6.3,10.3,35,0.00,,,0.00,Rainwise IP-100,2013-02-14 17:41:00,
2013-02-14 11:46:00,61.6,33.0,28.62,West,270,2.3,10.7,34,0.00,,,0.00,Rainwise IP-100,2013-02-14 17:46:00,
2013-02-14 11:51:00,61.9,33.0,28.62,SW,225,3.0,8.2,34,0.00,,,0.00,Rainwise IP-100,2013-02-14 17:51:00,
2013-02-14 11:56:00,62.0,32.0,28.62,SSW,202,2.6,10.0,33,0.00,,,0.00,Rainwise IP-100,2013-02-14 17:56:00,
2013-02-14 12:01:00,62.2,32.0,28.61,SW,225,3.5,7.9,33,0.00,,,0.00,Rainwise IP-100,2013-02-14 18:01:00,
2013-02-14 12:06:00,62.7,32.0,28.61,West,270,7.7,13.8,32,0.00,,,0.00,Rainwise IP-100,2013-02-14 18:06:00,
2013-02-14 12:11:00,63.1,33.0,28.61,South,180,5.6,10.5,32,0.00,,,0.00,Rainwise IP-100,2013-02-14 18:11:00,
2013-02-14 12:16:00,63.2,32.0,28.60,SSE,157,7.2,8.6,31,0.00,,,0.00,Rainwise IP-100,2013-02-14 18:16:00,
2013-02-14 12:21:00,63.3,32.0,28.60,SW,225,4.9,9.1,31,0.00,,,0.00,Rainwise IP-100,2013-02-14 18:21:00,
2013-02-14 12:26:00,63.7,32.0,28.60,SSW,202,4.0,8.2,31,0.00,,,0.00,Rainwise IP-100,2013-02-14 18:26:00,
2013-02-14 12:31:00,63.9,32.0,28.59,South,180,5.6,6.1,30,0.00,,,0.00,Rainwise IP-100,2013-02-14 18:31:00,
2013-02-14 12:36:00,64.1,32.0,28.59,SW,225,3.5,9.6,30,0.00,,,0.00,Rainwise IP-100,2013-02-14 18:36:00,
2013-02-14 12:41:00,64.3,32.0,28.59,SSW,202,1.6,8.2,29,0.00,,,0.00,Rainwise IP-100,2013-02-14 18:41:00,
2013-02-14 12:46:00,64.6,32.0,28.58,West,270,0.0,7.0,29,0.00,,,0.00,Rainwise IP-100,2013-02-14 18:46:00,
2013-02-14 12:51:00,65.1,32.0,28.58,South,180,4.9,7.0,29,0.00,,,0.00,Rainwise IP-100,2013-02-14 18:51:00,
2013-02-14 12:56:00,65.5,32.0,28.57,SSW,202,4.2,8.9,28,0.00,,,0.00,Rainwise IP-100,2013-02-14 18:56:00,
2013-02-14 13:01:00,65.8,32.0,28.57,WSW,247,5.1,7.2,28,0.00,,,0.00,Rainwise IP-100,2013-02-14 19:01:00,
2013-02-14 13:06:00,65.9,31.0,28.57,WSW,247,3.0,8.6,27,0.00,,,0.00,Rainwise IP-100,2013-02-14 19:06:00,
2013-02-14 13:11:00,66.2,32.0,28.57,WSW,247,4.2,4.2,27,0.00,,,0.00,Rainwise IP-100,2013-02-14 19:11:00,
2013-02-14 13:16:00,66.4,32.0,28.56,WSW,247,2.1,7.2,27,0.00,,,0.00,Rainwise IP-100,2013-02-14 19:16:00,
2013-02-14 13:21:00,66.4,31.0,28.56,WSW,247,11.9,14.0,26,0.00,,,0.00,Rainwise IP-100,2013-02-14 19:21:00,
2013-02-14 13:26:00,66.2,29.0,28.56,WSW,247,5.8,11.9,25,0.00,,,0.00,Rainwise IP-100,2013-02-14 19:26:00,
2013-02-14 13:31:00,66.2,29.0,28.55,WSW,247,4.0,8.2,25,0.00,,,0.00,Rainwise IP-100,2013-02-14 19:31:00,
2013-02-14 13:36:00,66.7,31.0,28.56,SSW,202,3.7,11.4,25,0.00,,,0.00,Rainwise IP-100,2013-02-14 19:36:00,
2013-02-14 13:41:00,67.2,28.0,28.55,South,180,4.7,9.3,23,0.00,,,0.00,Rainwise IP-100,2013-02-14 19:41:00,
2013-02-14 13:46:00,67.4,29.0,28.55,South,180,6.1,8.2,23,0.00,,,0.00,Rainwise IP-100,2013-02-14 19:46:00,
2013-02-14 13:51:00,67.4,29.0,28.54,SSW,202,4.2,10.7,23,0.00,,,0.00,Rainwise IP-100,2013-02-14 19:51:00,
2013-02-14 13:56:00,67.1,28.0,28.54,SE,135,5.4,9.8,23,0.00,,,0.00,Rainwise IP-100,2013-02-14 19:56:00,
2013-02-14 14:01:00,67.3,29.0,28.53,WSW,247,1.9,11.4,23,0.00,,,0.00,Rainwise IP-100,2013-02-14 20:01:00,
2013-02-14 14:06:00,67.9,28.0,28.54,SSE,157,7.2,12.6,22,0.00,,,0.00,Rainwise IP-100,2013-02-14 20:06:00,
2013-02-14 14:11:00,68.2,26.0,28.54,South,180,5.8,13.1,21,0.00,,,0.00,Rainwise IP-100,2013-02-14 20:11:00,
2013-02-14 14:16:00,68.4,26.0,28.53,SSW,202,4.4,10.5,20,0.00,,,0.00,Rainwise IP-100,2013-02-14 20:16:00,
2013-02-14 14:21:00,68.6,26.0,28.53,SE,135,10.3,10.3,20,0.00,,,0.00,Rainwise IP-100,2013-02-14 20:21:00,
2013-02-14 14:26:00,68.9,26.0,28.53,ESE,112,5.8,11.7,20,0.00,,,0.00,Rainwise IP-100,2013-02-14 20:26:00,
2013-02-14 14:31:00,69.2,26.0,28.53,SSE,157,7.2,13.8,19,0.00,,,0.00,Rainwise IP-100,2013-02-14 20:31:00,
2013-02-14 14:36:00,68.8,24.0,28.53,WSW,247,3.3,13.8,18,0.00,,,0.00,Rainwise IP-100,2013-02-14 20:36:00,
2013-02-14 14:41:00,68.3,24.0,28.52,SE,135,3.3,11.7,18,0.00,,,0.00,Rainwise IP-100,2013-02-14 20:41:00,
2013-02-14 14:46:00,68.6,24.0,28.52,SSW,202,4.4,13.8,18,0.00,,,0.00,Rainwise IP-100,2013-02-14 20:46:00,
2013-02-14 14:51:00,69.2,24.0,28.52,SSW,202,5.8,16.1,18,0.00,,,0.00,Rainwise IP-100,2013-02-14 20:51:00,
2013-02-14 14:56:00,69.2,24.0,28.52,South,180,8.4,13.8,18,0.00,,,0.00,Rainwise IP-100,2013-02-14 20:56:00,
2013-02-14 15:01:00,69.1,24.0,28.52,SSW,202,6.5,14.7,18,0.00,,,0.00,Rainwise IP-100,2013-02-14 21:01:00,
2013-02-14 15:06:00,69.5,24.0,28.51,SSW,202,9.3,10.3,18,0.00,,,0.00,Rainwise IP-100,2013-02-14 21:06:00,
2013-02-14 15:11:00,69.6,24.0,28.51,WSW,247,6.5,12.8,18,0.00,,,0.00,Rainwise IP-100,2013-02-14 21:11:00,
2013-02-14 15:16:00,69.6,24.0,28.51,SSW,202,3.7,12.1,18,0.00,,,0.00,Rainwise IP-100,2013-02-14 21:16:00,
2013-02-14 15:21:00,70.0,24.0,28.51,SW,225,6.3,9.6,18,0.00,,,0.00,Rainwise IP-100,2013-02-14 21:21:00,
2013-02-14 15:26:00,69.9,24.0,28.51,SSE,157,10.3,14.0,18,0.00,,,0.00,Rainwise IP-100,2013-02-14 21:26:00,
2013-02-14 15:31:00,69.7,24.0,28.50,SSW,202,6.5,14.0,18,0.00,,,0.00,Rainwise IP-100,2013-02-14 21:31:00,
2013-02-14 15:36:00,69.8,24.0,28.50,South,180,5.8,9.6,18,0.00,,,0.00,Rainwise IP-100,2013-02-14 21:36:00,
2013-02-14 15:41:00,70.0,24.0,28.50,SSW,202,8.9,14.9,18,0.00,,,0.00,Rainwise IP-100,2013-02-14 21:41:00,
2013-02-14 15:46:00,70.0,24.0,28.50,SW,225,3.3,12.8,18,0.00,,,0.00,Rainwise IP-100,2013-02-14 21:46:00,
2013-02-14 15:51:00,69.9,24.0,28.50,SSW,202,4.7,8.9,18,0.00,,,0.00,Rainwise IP-100,2013-02-14 21:51:00,
2013-02-14 15:56:00,70.0,24.0,28.50,South,180,7.9,12.1,18,0.00,,,0.00,Rainwise IP-100,2013-02-14 21:56:00,
2013-02-14 16:01:00,70.2,24.0,28.50,SSE,157,6.1,10.7,17,0.00,,,0.00,Rainwise IP-100,2013-02-14 22:01:00,
2013-02-14 16:06:00,70.0,24.0,28.50,SSE,157,4.9,6.5,17,0.00,,,0.00,Rainwise IP-100,2013-02-14 22:06:00,
2013-02-14 16:11:00,70.1,24.0,28.50,SW,225,9.3,11.7,17,0.00,,,0.00,Rainwise IP-100,2013-02-14 22:11:00,
2013-02-14 16:16:00,70.3,24.0,28.50,SSW,202,4.9,13.5,17,0.00,,,0.00,Rainwise IP-100,2013-02-14 22:16:00,
2013-02-14 16:21:00,70.2,24.0,28.50,SSE,157,4.7,8.6,17,0.00,,,0.00,Rainwise IP-100,2013-02-14 22:21:00,
2013-02-14 16:26:00,70.1,24.0,28.50,SW,225,7.5,12.1,17,0.00,,,0.00,Rainwise IP-100,2013-02-14 22:26:00,
2013-02-14 16:31:00,70.0,24.0,28.50,SSW,202,3.3,10.5,17,0.00,,,0.00,Rainwise IP-100,2013-02-14 22:31:00,
2013-02-14 16:36:00,70.0,24.0,28.50,SSW,202,5.8,9.8,17,0.00,,,0.00,Rainwise IP-100,2013-02-14 22:36:00,
2013-02-14 16:41:00,70.0,24.0,28.50,SSW,202,4.2,12.4,17,0.00,,,0.00,Rainwise IP-100,2013-02-14 22:41:00,
2013-02-14 16:46:00,70.0,24.0,28.50,SSW,202,3.7,9.6,17,0.00,,,0.00,Rainwise IP-100,2013-02-14 22:46:00,
2013-02-14 16:51:00,69.9,24.0,28.50,SW,225,6.5,11.9,17,0.00,,,0.00,Rainwise IP-100,2013-02-14 22:51:00,
2013-02-14 16:56:00,70.1,24.0,28.50,SSW,202,2.8,8.6,17,0.00,,,0.00,Rainwise IP-100,2013-02-14 22:56:00,
2013-02-14 17:01:00,70.1,24.0,28.50,SSW,202,7.7,9.1,17,0.00,,,0.00,Rainwise IP-100,2013-02-14 23:01:00,
2013-02-14 17:06:00,69.8,24.0,28.50,South,180,2.8,7.9,18,0.00,,,0.00,Rainwise IP-100,2013-02-14 23:06:00,
2013-02-14 17:11:00,69.8,23.0,28.50,SSW,202,3.3,5.8,17,0.00,,,0.00,Rainwise IP-100,2013-02-14 23:11:00,
2013-02-14 17:16:00,69.9,24.0,28.50,SSW,202,2.6,6.3,17,0.00,,,0.00,Rainwise IP-100,2013-02-14 23:16:00,
2013-02-14 17:21:00,69.8,23.0,28.50,SSE,157,4.9,7.9,17,0.00,,,0.00,Rainwise IP-100,2013-02-14 23:21:00,
2013-02-14 17:26:00,69.6,23.0,28.50,SSW,202,2.8,6.8,17,0.00,,,0.00,Rainwise IP-100,2013-02-14 23:26:00,
2013-02-14 17:31:00,69.6,23.0,28.50,SSW,202,1.6,4.9,17,0.00,,,0.00,Rainwise IP-100,2013-02-14 23:31:00,
2013-02-14 17:36:00,69.6,23.0,28.50,SSW,202,3.0,4.7,17,0.00,,,0.00,Rainwise IP-100,2013-02-14 23:36:00,
2013-02-14 17:41:00,69.5,23.0,28.50,SW,225,4.9,6.5,17,0.00,,,0.00,Rainwise IP-100,2013-02-14 23:41:00,
2013-02-14 17:46:00,69.3,23.0,28.50,SSE,157,5.1,6.8,17,0.00,,,0.00,Rainwise IP-100,2013-02-14 23:46:00,
2013-02-14 17:51:00,68.8,24.0,28.50,SSW,202,3.5,7.7,18,0.00,,,0.00,Rainwise IP-100,2013-02-14 23:51:00,
2013-02-14 17:56:00,68.5,24.0,28.50,South,180,2.1,4.2,18,0.00,,,0.00,Rainwise IP-100,2013-02-14 23:56:00,
2013-02-14 18:01:00,68.2,23.0,28.51,South,180,1.9,3.5,18,0.00,,,0.00,Rainwise IP-100,2013-02-15 00:01:00,
2013-02-14 18:06:00,67.8,23.0,28.51,SSE,157,2.1,6.5,18,0.00,,,0.00,Rainwise IP-100,2013-02-15 00:06:00,
2013-02-14 18:11:00,67.4,23.0,28.50,SSW,202,2.6,3.7,18,0.00,,,0.00,Rainwise IP-100,2013-02-15 00:11:00,
2013-02-14 18:16:00,66.9,24.0,28.51,SSW,202,2.1,3.7,19,0.00,,,0.00,Rainwise IP-100,2013-02-15 00:16:00,
2013-02-14 18:21:00,66.3,23.0,28.51,South,180,2.6,3.3,19,0.00,,,0.00,Rainwise IP-100,2013-02-15 00:21:00,
2013-02-14 18:26:00,65.6,23.0,28.51,South,180,0.0,2.6,19,0.00,,,0.00,Rainwise IP-100,2013-02-15 00:26:00,
2013-02-14 18:31:00,64.7,23.0,28.51,South,180,0.0,1.2,20,0.00,,,0.00,Rainwise IP-100,2013-02-15 00:31:00,
2013-02-14 18:36:00,63.7,23.0,28.51,South,180,0.0,0.0,21,0.00,,,0.00,Rainwise IP-100,2013-02-15 00:36:00,
2013-02-14 18:41:00,62.6,24.0,28.52,South,180,0.0,0.0,22,0.00,,,0.00,Rainwise IP-100,2013-02-15 00:41:00,
2013-02-14 18:46:00,61.6,24.0,28.52,South,180,0.0,0.0,23,0.00,,,0.00,Rainwise IP-100,2013-02-15 00:46:00,
2013-02-14 18:51:00,61.0,24.0,28.52,South,180,0.0,0.0,24,0.00,,,0.00,Rainwise IP-100,2013-02-15 00:51:00,
2013-02-14 18:56:00,59.9,24.0,28.52,South,180,0.0,0.0,25,0.00,,,0.00,Rainwise IP-100,2013-02-15 00:56:00,
2013-02-14 19:01:00,58.7,24.0,28.52,South,180,0.0,0.0,26,0.00,,,0.00,Rainwise IP-100,2013-02-15 01:01:00,
2013-02-14 19:06:00,57.9,24.0,28.52,South,180,0.0,0.0,27,0.00,,,0.00,Rainwise IP-100,2013-02-15 01:06:00,
2013-02-14 19:11:00,57.9,26.0,28.52,South,180,0.0,0.0,28,0.00,,,0.00,Rainwise IP-100,2013-02-15 01:11:00,
2013-02-14 19:16:00,57.8,26.0,28.53,South,180,0.0,0.0,29,0.00,,,0.00,Rainwise IP-100,2013-02-15 01:16:00,
2013-02-14 19:21:00,57.4,26.0,28.53,South,180,0.0,0.0,29,0.00,,,0.00,Rainwise IP-100,2013-02-15 01:21:00,
2013-02-14 19:26:00,57.3,26.0,28.53,South,180,0.0,0.0,30,0.00,,,0.00,Rainwise IP-100,2013-02-15 01:26:00,
2013-02-14 19:31:00,57.2,28.0,28.53,South,180,0.0,0.0,31,0.00,,,0.00,Rainwise IP-100,2013-02-15 01:31:00,
2013-02-14 19:36:00,57.4,28.0,28.52,ESE,112,1.9,3.3,31,0.00,,,0.00,Rainwise IP-100,2013-02-15 01:36:00,
2013-02-14 19:41:00,58.0,28.0,28.52,ESE,112,1.2,2.8,31,0.00,,,0.00,Rainwise IP-100,2013-02-15 01:41:00,
2013-02-14 19:46:00,58.2,28.0,28.52,ESE,112,0.0,2.3,31,0.00,,,0.00,Rainwise IP-100,2013-02-15 01:46:00,
2013-02-14 19:51:00,57.8,28.0,28.52,ESE,112,0.0,1.9,31,0.00,,,0.00,Rainwise IP-100,2013-02-15 01:51:00,
2013-02-14 19:56:00,57.7,28.0,28.52,ESE,112,0.0,1.6,31,0.00,,,0.00,Rainwise IP-100,2013-02-15 01:56:00,
2013-02-14 20:01:00,57.6,28.0,28.52,ESE,112,0.0,1.9,31,0.00,,,0.00,Rainwise IP-100,2013-02-15 02:01:00,
2013-02-14 20:06:00,57.5,28.0,28.52,ESE,112,0.0,1.2,32,0.00,,,0.00,Rainwise IP-100,2013-02-15 02:06:00,
2013-02-14 20:11:00,57.1,28.0,28.52,ESE,112,0.0,0.0,32,0.00,,,0.00,Rainwise IP-100,2013-02-15 02:11:00,
2013-02-14 20:16:00,56.3,28.0,28.52,ESE,112,0.0,1.2,33,0.00,,,0.00,Rainwise IP-100,2013-02-15 02:16:00,
2013-02-14 20:21:00,55.6,28.0,28.52,ESE,112,0.0,0.0,33,0.00,,,0.00,Rainwise IP-100,2013-02-15 02:21:00,
2013-02-14 20:26:00,55.7,28.0,28.52,ESE,112,0.0,1.9,34,0.00,,,0.00,Rainwise IP-100,2013-02-15 02:26:00,
2013-02-14 20:31:00,56.2,28.0,28.53,ESE,112,0.0,2.6,34,0.00,,,0.00,Rainwise IP-100,2013-02-15 02:31:00,
2013-02-14 20:36:00,56.0,29.0,28.52,ESE,112,1.6,2.1,35,0.00,,,0.00,Rainwise IP-100,2013-02-15 02:36:00,
2013-02-14 20:41:00,56.1,29.0,28.52,ESE,112,0.0,1.9,35,0.00,,,0.00,Rainwise IP-100,2013-02-15 02:41:00,
2013-02-14 20:46:00,56.6,29.0,28.52,ESE,112,1.4,3.3,34,0.00,,,0.00,Rainwise IP-100,2013-02-15 02:46:00,
2013-02-14 20:51:00,56.4,29.0,28.52,ESE,112,0.0,1.9,34,0.00,,,0.00,Rainwise IP-100,2013-02-15 02:51:00,
2013-02-14 20:56:00,55.6,28.0,28.53,ESE,112,0.0,2.1,34,0.00,,,0.00,Rainwise IP-100,2013-02-15 02:56:00,
2013-02-14 21:01:00,55.3,28.0,28.53,ESE,112,0.0,5.6,35,0.00,,,0.00,Rainwise IP-100,2013-02-15 03:01:00,
2013-02-14 21:06:00,55.2,29.0,28.53,East,90,1.2,2.1,36,0.00,,,0.00,Rainwise IP-100,2013-02-15 03:06:00,
2013-02-14 21:11:00,55.1,29.0,28.54,East,90,1.9,4.9,36,0.00,,,0.00,Rainwise IP-100,2013-02-15 03:11:00,
2013-02-14 21:16:00,55.2,29.0,28.54,East,90,0.0,2.6,36,0.00,,,0.00,Rainwise IP-100,2013-02-15 03:16:00,
2013-02-14 21:21:00,55.1,29.0,28.54,ESE,112,1.2,3.7,36,0.00,,,0.00,Rainwise IP-100,2013-02-15 03:21:00,
2013-02-14 21:26:00,55.1,29.0,28.54,ESE,112,1.4,4.2,37,0.00,,,0.00,Rainwise IP-100,2013-02-15 03:26:00,
2013-02-14 21:31:00,54.9,29.0,28.55,SE,135,1.9,3.0,37,0.00,,,0.00,Rainwise IP-100,2013-02-15 03:31:00,
2013-02-14 21:36:00,54.5,29.0,28.55,SE,135,2.1,3.7,37,0.00,,,0.00,Rainwise IP-100,2013-02-15 03:36:00,
2013-02-14 21:41:00,54.1,29.0,28.55,SE,135,0.0,2.6,38,0.00,,,0.00,Rainwise IP-100,2013-02-15 03:41:00,
2013-02-14 21:46:00,54.0,29.0,28.55,SE,135,0.0,3.5,38,0.00,,,0.00,Rainwise IP-100,2013-02-15 03:46:00,
2013-02-14 21:51:00,53.9,29.0,28.55,SE,135,0.0,2.6,39,0.00,,,0.00,Rainwise IP-100,2013-02-15 03:51:00,
2013-02-14 21:56:00,53.6,29.0,28.56,SE,135,0.0,1.6,39,0.00,,,0.00,Rainwise IP-100,2013-02-15 03:56:00,
2013-02-14 22:01:00,52.9,29.0,28.55,SE,135,0.0,1.6,40,0.00,,,0.00,Rainwise IP-100,2013-02-15 04:01:00,
2013-02-14 22:06:00,52.4,29.0,28.55,East,90,0.0,2.3,41,0.00,,,0.00,Rainwise IP-100,2013-02-15 04:06:00,
2013-02-14 22:11:00,52.3,29.0,28.56,East,90,1.6,2.6,41,0.00,,,0.00,Rainwise IP-100,2013-02-15 04:11:00,
2013-02-14 22:16:00,52.1,29.0,28.56,East,90,0.0,2.1,42,0.00,,,0.00,Rainwise IP-100,2013-02-15 04:16:00,
2013-02-14 22:21:00,51.9,29.0,28.56,ENE,67,1.9,3.3,42,0.00,,,0.00,Rainwise IP-100,2013-02-15 04:21:00,
2013-02-14 22:26:00,51.7,31.0,28.56,ENE,67,1.9,2.3,43,0.00,,,0.00,Rainwise IP-100,2013-02-15 04:26:00,
2013-02-14 22:31:00,51.2,29.0,28.56,ENE,67,1.2,2.6,43,0.00,,,0.00,Rainwise IP-100,2013-02-15 04:31:00,
2013-02-14 22:36:00,50.2,29.0,28.56,ENE,67,2.3,2.6,45,0.00,,,0.00,Rainwise IP-100,2013-02-15 04:36:00,
2013-02-14 22:41:00,49.7,31.0,28.57,ENE,67,1.2,2.8,46,0.00,,,0.00,Rainwise IP-100,2013-02-15 04:41:00,
2013-02-14 22:46:00,49.4,29.0,28.57,ENE,67,0.0,1.6,47,0.00,,,0.00,Rainwise IP-100,2013-02-15 04:46:00,
2013-02-14 22:51:00,49.2,29.0,28.57,ENE,67,0.0,0.0,47,0.00,,,0.00,Rainwise IP-100,2013-02-15 04:51:00,
2013-02-14 22:56:00,49.5,31.0,28.57,ENE,67,2.1,2.6,47,0.00,,,0.00,Rainwise IP-100,2013-02-15 04:56:00,
2013-02-14 23:00:00,49.7,31.0,28.57,ENE,67,0.0,3.3,47,0.00,,,0.00,Rainwise IP-100,2013-02-15 05:00:00,
2013-02-14 23:05:00,49.8,31.0,28.58,SE,135,1.4,3.0,47,0.00,,,0.00,Rainwise IP-100,2013-02-15 05:05:00,
2013-02-14 23:10:00,50.1,31.0,28.58,SSE,157,1.2,3.0,46,0.00,,,0.00,Rainwise IP-100,2013-02-15 05:10:00,
2013-02-14 23:15:00,50.5,31.0,28.58,SSE,157,1.2,2.8,45,0.00,,,0.00,Rainwise IP-100,2013-02-15 05:15:00,
2013-02-14 23:20:00,50.6,31.0,28.58,SE,135,2.6,4.0,45,0.00,,,0.00,Rainwise IP-100,2013-02-15 05:20:00,
2013-02-14 23:25:00,50.6,31.0,28.58,SE,135,2.1,3.7,45,0.00,,,0.00,Rainwise IP-100,2013-02-15 05:25:00,
2013-02-14 23:30:00,50.7,31.0,28.58,SE,135,0.0,4.2,45,0.00,,,0.00,Rainwise IP-100,2013-02-15 05:30:00,
2013-02-14 23:35:00,50.5,31.0,28.58,SE,135,1.4,3.5,45,0.00,,,0.00,Rainwise IP-100,2013-02-15 05:35:00,
2013-02-14 23:40:00,50.2,31.0,28.58,ESE,112,1.2,3.3,46,0.00,,,0.00,Rainwise IP-100,2013-02-15 05:40:00,
2013-02-14 23:45:00,49.9,31.0,28.58,ESE,112,1.2,3.5,47,0.00,,,0.00,Rainwise IP-100,2013-02-15 05:45:00,
2013-02-14 23:50:00,49.7,31.0,28.58,ESE,112,1.2,2.1,47,0.00,,,0.00,Rainwise IP-100,2013-02-15 05:50:00,
2013-02-14 23:55:00,49.5,31.0,28.58,ESE,112,1.6,2.3,47,0.00,,,0.00,Rainwise IP-100,2013-02-15 05:55:00,